User: anonymous   Login
Location: Newark
(45.2500°N, 7.5833°E)
Time: 01:40:17
(UTC+00:00)
Language:

NUDT-PHONESAT - Orbit

View from above orbital plane
View from above orbital plane
View from above satellite
View from above satellite

Ground track
Ground track

The orbit data is extracted from the following two-line orbital elements,

1 40900U 15049B   20058.81838341  .00001885  00000-0  81424-4 0  9998
2 40900  97.4344  70.7409 0013125  20.9463 104.0154 15.23671986246341
Epoch (UTC): 27 February 2020 19:38:28
Eccentricity: 0.0013125
inclination: 97.4344°
perigee height: 486 km
apogee height: 504 km
right ascension of ascending node: 70.7409°
argument of perigee: 20.9463°
revolutions per day: 15.23671986
mean anomaly at epoch: 104.0154°
orbit number at epoch: 24634

The dashed part of the orbit path shows where the satellite is in the earth's shadow,  

DLR